Gesamt
Ingalls Fld Airport (Hot Springs, VA) HSP Wetter
|
Hot Springs, VA (KHSP)
Klarer Himmel
Leichter Wind |
|
17 °C |
There is no TAF data available at HSP or any nearby airports.
Kürzlicher METAR-Verlauf für HSP
| Date | Time (EDT) | Flight Rules | Wind Dir. | Speed | Type | Height AGL (ft) | Visibility | Temp (°C) | Temp (°F) | Dew Point (°C) | Dew Point (°F) | Rel. Humid. | Pressure | Density Altitude | Remarks |
|---|---|---|---|---|---|---|---|---|---|---|---|---|---|---|---|
| 06-Sep | 03:55 | VFR | 50° | 4 kt | 5 miles |
17° | 62° | 17° | 62° | 97% | 30.03 in Hg | 4.635 ft | Mist | ||
| 06-Sep | 03:35 | VFR | Calm | 10 miles | 18° | 64° | 17° | 62° | 93% | 30.04 in Hg | 4.745 ft | ||||
| 06-Sep | 03:15 | VFR | Calm | 10 miles | 18° | 64° | 17° | 62° | 94% | 30.03 in Hg | 4.755 ft | ||||
| 06-Sep | 02:55 | VFR | Calm | 10 miles | 18° | 64° | 17° | 62° | 93% | 30.03 in Hg | 4.755 ft | ||||
| 06-Sep | 02:35 | VFR | 180° | 3 kt | 10 miles | 18° | 64° | 17° | 62° | 93% | 30.05 in Hg | 4.735 ft | |||
| 06-Sep | 02:15 | VFR | Calm | 10 miles | 19° | 66° | 17° | 62° | 91% | 30.05 in Hg | 4.855 ft | ||||
| 06-Sep | 01:55 | VFR | Calm | 10 miles | 19° | 66° | 17° | 62° | 91% | 30.05 in Hg | 4.855 ft | ||||
| 06-Sep | 01:35 | VFR | Calm | 10 miles | 19° | 66° | 17° | 62° | 90% | 30.05 in Hg | 4.855 ft | ||||
| 06-Sep | 01:15 | VFR | 280° | 3 kt | 10 miles | 19° | 66° | 17° | 62° | 88% | 30.05 in Hg | 4.855 ft | |||
| 06-Sep | 00:55 | VFR | 310° | 3 kt | 10 miles | 18° | 64° | 17° | 62° | 94% | 30.06 in Hg | 4.725 ft | |||
| 06-Sep | 00:15 | VFR | 330° | 5 kt | 10 miles | 19° | 66° | 17° | 62° | 89% | 30.06 in Hg | 4.845 ft | |||
| 05-Sep | 23:55 | VFR | Calm | 10 miles | 19° | 66° | 16° | 60° | 83% | 30.07 in Hg | 4.835 ft | ||||
| 05-Sep | 23:35 | VFR | 270° | 5 kt | 10 miles | 19° | 66° | 16° | 60° | 82% | 30.07 in Hg | 4.835 ft | |||
| 05-Sep | 23:15 | VFR | 290° | 5 kt | 10 miles | 19° | 66° | 16° | 60° | 84% | 30.07 in Hg | 4.835 ft | |||
| 05-Sep | 22:55 | VFR | 310° | 6 kt | 10 miles | 19° | 66° | 17° | 62° | 85% | 30.07 in Hg | 4.835 ft | |||
| 05-Sep | 22:35 | VFR | 300° | 5 kt | 10 miles | 19° | 66° | 17° | 62° | 85% | 30.07 in Hg | 4.835 ft | |||
| 05-Sep | 22:15 | VFR | 310° | 7 kt | 10 miles | 19° | 66° | 17° | 62° | 87% | 30.07 in Hg | 4.835 ft | |||
| 05-Sep | 21:55 | VFR | 330° | 4 kt | 10 miles | 19° | 66° | 17° | 62° | 85% | 30.07 in Hg | 4.835 ft | |||
| 05-Sep | 21:35 | VFR | 300° | 4 kt | 10 miles | 19° | 66° | 17° | 62° | 87% | 30.06 in Hg | 4.845 ft | |||
| 05-Sep | 21:15 | VFR | 330° | 3 kt | 10 miles | 20° | 68° | 17° | 62° | 84% | 30.06 in Hg | 4.965 ft | |||
| 05-Sep | 20:55 | VFR | 330° | 5 kt | 10 miles | 20° | 68° | 17° | 62° | 81% | 30.05 in Hg | 4.975 ft | |||
| 05-Sep | 20:35 | VFR | 300° | 5 kt | 10 miles | 20° | 68° | 17° | 62° | 80% | 30.05 in Hg | 4.975 ft | |||
| 05-Sep | 20:15 | VFR | 330° | 4 kt | 10 miles | 21° | 69° | 17° | 62° | 77% | 30.05 in Hg | 5.095 ft | |||
| 05-Sep | 19:15 | VFR | 320° | 3 kt | 10 miles | 22° | 71° | 17° | 62° | 72% | 30.05 in Hg | 5.215 ft |
Anmelden
| Ihr Browser wird nicht unterstützt. aktualisieren Sie Ihren Browser |
